Helena, MT

11:37 PM MDT on September 01, 2015 (GMT -0600)
Helena 2-North | | Change Station
CLOSE
Current Station
Personal Weather Station
Location: Helena, MT
Elevation: 3825 ft
Nearby Weather Stations
Active Advisory: Fire Weather Warning

Elev 3825 ft 46.62 °N, 112.04 °W | Updated 2 minutes ago

Clear
Clear
62.1 °F
Feels Like 62.1 °F
N
8.0
Wind Variable Wind from WSW
Gusts 11.0 mph

Today
High -- | Low -- °F
--% Chance of Precip.
Yesterday
High -- | Low -- °F
Precip. -- in
6:47 AM 8:07 PM
Waning Gibbous, 83% visible
Pressure 29.74 in
Visibility 10.0 miles
Clouds Clear
Dew Point 37 °F
Humidity 39%
Rainfall 0.00 in
Snow Depth Not available.
UV 0 out of 12
Pollen 7.90 out of 12
Air Quality Not available.
Flu Activity Not available.
METAR KHLN 020453Z AUTO 25007KT 10SM CLR 19/01 A2979 RMK AO2 SLP071 T01940011 $
Pressure 29.74 in
Visibility 10.0 miles
Clouds Clear
Dew Point 37 °F
Humidity 39%
Rainfall 0.00 in
Snow Depth Not available.
UV 0 out of 12
Pollen 7.90 out of 12
Air Quality Not available.
Flu Activity Not available.
METAR KHLN 020453Z AUTO 25007KT 10SM CLR 19/01 A2979 RMK AO2 SLP071 T01940011 $

10-Day Weather Forecast

×

Almanac

Astronomy

Sep. 01, 2015 Rise Set
Actual Time
Civil Twilight
Nautical Twilight
Astronomical Twilight
Moon
Length of Visible Light
Length of Day
Tomorrow will be .
, % of the Moon is Illuminated

Today's Extremes

State Highs State Lows

Community

WunderPhotos

Upload Photos

1,851,709 photos uploaded!

WunderBlogs® & News

Nearby

Air Quality

  Air Quality AQ Index Pollutant
Not available.

Snow Depth

Station Depth Elevation

Earthquake Activity

City Distance Mag. Time & Date
Minimum magnitude displayed is 2.5.

Coastal Water Temperatures

Place Temperature

Stations

Nearby Weather Stations

Station Location Temp. Windchill Dew Point Humidity Wind Precip. Elev Updated Type
                   
Fire Weather Warning
Statement as of 8:40 PM MDT on September 01, 2015

... Red flag warning remains in effect from noon to 9 PM MDT
Wednesday for low humidity and gusty winds for fire weather zone
118...

* affected area... fire weather zone 118.

* Wind... west to southwest winds 15 to 20 mph with gusts 25 to
30 mph are expected.

* Humidity... minimum humidity values in the afternoon are
forecast to be 15-20 percent.

* Highest threat of critical fire weather conditions will be
over the southern half of fire zone 118 from the Townsend area
to Three Forks and Bozeman.

* Impacts... any existing fires or new fires that develop will
likely spread rapidly.

Precautionary/preparedness actions...

A red flag warning means that critical fire weather conditions
are likely. A combination of gusty winds... low relative
humidity... and warm temperatures will create high fire growth
potential.

Please advise the appropriate officials or fire crews in these
areas of this red flag warning.